TimeCDT,TemperatureF,Dew PointF,Humidity,Sea Level PressureIn,VisibilityMPH,Wind Direction,Wind SpeedMPH,Gust SpeedMPH,PrecipitationIn,Events,Conditions,WindDirDegrees,DateUTC
12:18 AM,39.2,39.2,100,29.57,9.0,Calm,Calm,-,N/A,Rain,Light Rain,0,2013-10-20 05:18:00
12:43 AM,39.2,39.2,100,29.56,10.0,Calm,Calm,-,N/A,,Light Drizzle,0,2013-10-20 05:43:00
12:58 AM,40.1,39.9,99,29.61,9.0,North,1.2,-,0.02,,Light Drizzle,10,2013-10-20 05:58:00
1:03 AM,41.0,39.2,93,29.56,5.0,North,2.3,-,N/A,,Light Drizzle,350,2013-10-20 06:03:00
1:08 AM,41.0,39.2,93,29.56,4.0,NNW,3.5,-,N/A,,Light Drizzle,340,2013-10-20 06:08:00
1:18 AM,41.0,41.0,100,29.56,3.0,North,2.3,-,N/A,,Light Drizzle,350,2013-10-20 06:18:00
1:23 AM,41.0,41.0,100,29.56,3.0,NNW,4.6,-,N/A,,Mostly Cloudy,330,2013-10-20 06:23:00
1:28 AM,41.0,41.0,100,29.57,2.5,NNW,4.6,-,N/A,,Light Drizzle,330,2013-10-20 06:28:00
1:43 AM,41.0,41.0,100,29.57,2.5,North,3.5,-,N/A,,Drizzle,360,2013-10-20 06:43:00
1:58 AM,39.7,39.4,99,29.62,2.5,North,3.5,-,0.01,,Drizzle,10,2013-10-20 06:58:00
2:03 AM,39.2,39.2,100,29.57,3.0,North,2.3,-,N/A,,Drizzle,360,2013-10-20 07:03:00
2:13 AM,39.2,39.2,100,29.57,4.0,NW,4.6,-,N/A,,Light Drizzle,320,2013-10-20 07:13:00
2:18 AM,39.2,39.2,100,29.58,4.0,NW,5.8,-,N/A,,Light Drizzle,310,2013-10-20 07:18:00
2:33 AM,39.2,39.2,100,-9999,-9999.0,North,-9999.0,-,N/A,,Overcast,0,2013-10-20 07:33:00
2:58 AM,-9999,-9999,N/A,-9999,-9999.0,North,-9999.0,-,N/A,,Overcast,0,2013-10-20 07:58:00
3:03 AM,-9999,-9999,N/A,29.59,-9999.0,NNW,11.5,-,N/A,,Overcast,330,2013-10-20 08:03:00
3:08 AM,41.0,41.0,100,29.60,8.0,North,9.2,-,N/A,,Overcast,350,2013-10-20 08:08:00
3:23 AM,39.2,39.2,100,29.60,8.0,NNW,9.2,-,N/A,,Overcast,340,2013-10-20 08:23:00
3:58 AM,39.0,38.7,99,29.66,8.0,North,10.4,-,N/A,,Overcast,350,2013-10-20 08:58:00
4:08 AM,39.2,39.2,100,29.62,10.0,NNW,12.7,-,N/A,,Light Drizzle,340,2013-10-20 09:08:00
4:18 AM,39.2,37.4,93,29.63,10.0,North,9.2,-,N/A,,Overcast,350,2013-10-20 09:18:00
4:23 AM,37.4,37.4,100,29.63,8.0,North,12.7,-,N/A,,Overcast,350,2013-10-20 09:23:00
4:33 AM,37.4,37.4,100,29.63,10.0,NNW,16.1,-,N/A,,Overcast,340,2013-10-20 09:33:00
4:43 AM,37.4,37.4,100,29.64,9.0,North,15.0,18.4,N/A,,Overcast,350,2013-10-20 09:43:00
4:53 AM,37.4,37.4,100,29.65,4.0,North,16.1,-,N/A,,Overcast,350,2013-10-20 09:53:00
4:58 AM,37.4,35.6,93,29.71,3.0,North,12.7,-,0.00,,Overcast,360,2013-10-20 09:58:00
5:08 AM,35.6,35.6,100,29.66,5.0,North,18.4,-,N/A,,Overcast,360,2013-10-20 10:08:00
5:13 AM,35.6,35.6,100,29.67,9.0,North,15.0,-,N/A,,Overcast,360,2013-10-20 10:13:00
5:18 AM,35.6,35.6,100,29.67,10.0,North,16.1,-,N/A,,Overcast,360,2013-10-20 10:18:00
5:23 AM,35.6,35.6,100,29.67,10.0,North,13.8,-,N/A,,Overcast,360,2013-10-20 10:23:00
5:58 AM,34.5,34.3,99,29.76,10.0,North,17.3,26.5,0.01,Rain,Light Rain,360,2013-10-20 10:58:00
6:03 AM,33.8,33.8,100,29.70,10.0,North,20.7,28.8,N/A,Rain,Light Rain,10,2013-10-20 11:03:00
6:08 AM,33.8,33.8,100,29.71,10.0,North,20.7,28.8,N/A,Rain,Light Rain,10,2013-10-20 11:08:00
6:13 AM,33.8,32.0,93,29.71,10.0,NNE,17.3,-,N/A,Rain,Light Rain,20,2013-10-20 11:13:00
6:23 AM,32.0,32.0,100,29.72,9.0,North,18.4,25.3,N/A,Rain,Light Rain,10,2013-10-20 11:23:00
6:28 AM,32.0,32.0,100,29.73,8.0,North,18.4,25.3,N/A,Rain,Light Rain,10,2013-10-20 11:28:00
6:38 AM,32.0,32.0,100,29.74,9.0,North,17.3,21.9,N/A,Rain,Light Rain,360,2013-10-20 11:38:00
6:53 AM,32.0,32.0,100,29.75,10.0,North,19.6,28.8,N/A,,Light Drizzle,10,2013-10-20 11:53:00
6:58 AM,33.4,33.1,99,29.82,10.0,North,16.1,28.8,0.00,,Overcast,10,2013-10-20 11:58:00
7:18 AM,32.0,32.0,100,29.77,10.0,NNE,17.3,-,N/A,,Light Drizzle,20,2013-10-20 12:18:00
7:33 AM,32.0,32.0,100,29.78,10.0,North,17.3,-,N/A,Rain,Light Rain,10,2013-10-20 12:33:00
7:58 AM,33.3,33.1,99,29.87,10.0,North,16.1,23.0,0.00,,Light Drizzle,10,2013-10-20 12:58:00
8:13 AM,32.0,32.0,100,29.81,10.0,North,15.0,19.6,N/A,,Overcast,360,2013-10-20 13:13:00
8:28 AM,32.0,32.0,100,29.83,10.0,North,17.3,-,N/A,,Light Drizzle,10,2013-10-20 13:28:00
8:33 AM,32.0,32.0,100,29.83,10.0,North,15.0,-,N/A,,Light Drizzle,10,2013-10-20 13:33:00
8:38 AM,32.0,32.0,100,29.83,10.0,North,17.3,24.2,N/A,,Light Drizzle,10,2013-10-20 13:38:00
8:48 AM,32.0,32.0,100,29.84,10.0,North,12.7,24.2,N/A,,Overcast,360,2013-10-20 13:48:00
8:58 AM,33.3,33.1,99,29.92,10.0,North,15.0,-,0.00,Rain,Light Rain,360,2013-10-20 13:58:00
9:58 AM,32.9,31.6,95,29.96,10.0,North,13.8,-,0.00,Rain,Light Rain,360,2013-10-20 14:58:00
10:58 AM,32.5,30.2,91,29.99,10.0,North,16.1,21.9,0.00,,Overcast,360,2013-10-20 15:58:00
11:58 AM,32.9,29.1,86,30.01,10.0,North,12.7,-,N/A,,Overcast,350,2013-10-20 16:58:00
12:08 PM,32.0,28.4,87,29.94,10.0,North,13.8,-,N/A,,Overcast,360,2013-10-20 17:08:00
12:48 PM,33.8,26.6,75,29.95,10.0,North,10.4,-,N/A,,Overcast,360,2013-10-20 17:48:00
12:58 PM,34.2,27.1,75,30.01,10.0,North,11.5,-,N/A,,Overcast,10,2013-10-20 17:58:00
1:18 PM,33.8,28.4,81,29.96,10.0,North,10.4,17.3,N/A,,Overcast,350,2013-10-20 18:18:00
1:58 PM,32.0,30.2,93,30.03,10.0,NNW,12.7,-,0.00,,Overcast,330,2013-10-20 18:58:00
2:03 PM,33.8,30.2,87,29.96,10.0,NNW,10.4,-,N/A,,Overcast,340,2013-10-20 19:03:00
2:08 PM,33.8,30.2,87,29.96,10.0,NNW,13.8,-,N/A,,Overcast,340,2013-10-20 19:08:00
2:13 PM,33.8,28.4,81,29.96,10.0,NNW,12.7,-,N/A,,Overcast,340,2013-10-20 19:13:00
2:18 PM,33.8,28.4,81,29.96,10.0,NNW,16.1,-,N/A,,Overcast,340,2013-10-20 19:18:00
2:43 PM,33.8,28.4,81,29.95,10.0,North,12.7,-,N/A,,Overcast,350,2013-10-20 19:43:00
2:48 PM,33.8,28.4,81,29.95,10.0,NNW,15.0,-,N/A,,Overcast,340,2013-10-20 19:48:00
2:58 PM,34.3,28.4,79,29.95,10.0,NNW,13.8,-,N/A,,Overcast,340,2013-10-20 19:58:00
3:08 PM,33.8,28.4,81,29.95,10.0,NNW,13.8,-,N/A,,Overcast,340,2013-10-20 20:08:00
3:18 PM,33.8,26.6,75,29.95,10.0,North,12.7,-,N/A,,Overcast,350,2013-10-20 20:18:00
3:23 PM,33.8,28.4,81,29.95,10.0,NNW,13.8,-,N/A,,Overcast,340,2013-10-20 20:23:00
3:58 PM,34.2,26.8,74,30.02,10.0,NNW,11.5,-,0.00,,Overcast,340,2013-10-20 20:58:00
4:43 PM,33.8,24.8,70,29.97,10.0,North,9.2,-,N/A,,Overcast,350,2013-10-20 21:43:00
4:58 PM,33.8,24.4,69,30.04,10.0,NNW,11.5,-,N/A,,Overcast,340,2013-10-20 21:58:00
5:58 PM,34.2,24.8,69,30.05,10.0,North,9.2,-,N/A,,Overcast,350,2013-10-20 22:58:00
6:58 PM,33.4,24.4,70,30.07,10.0,North,8.1,-,N/A,,Overcast,10,2013-10-20 23:58:00
7:58 PM,32.7,24.1,71,30.08,10.0,North,5.8,-,N/A,,Overcast,360,2013-10-21 00:58:00
8:58 PM,32.4,24.3,72,30.08,10.0,NNW,4.6,-,N/A,,Overcast,340,2013-10-21 01:58:00
9:58 PM,31.5,24.3,75,30.08,10.0,NW,5.8,-,N/A,,Overcast,320,2013-10-21 02:58:00
10:58 PM,31.1,24.4,76,30.08,10.0,NW,5.8,-,N/A,,Overcast,310,2013-10-21 03:58:00
11:58 PM,30.2,25.3,82,30.08,10.0,NW,3.5,-,N/A,,Overcast,310,2013-10-21 04:58:00